NOZ58U ENGM-EHAM

Flight info

Callsign NOZ58U
Flight time N/A
Altitude 38000
Route VIPPA DCT KUGAL DCT EEL DCT BLUFA
Aircraft B38M/M-SDE1FGHILORVWXY/HB1

Departure

Time N/A
Airport Oslo-Gardermoen International Airport (ENGM)

Arrival

Time 2026-04-27 18:49
Airport Amsterdam Airport Schiphol (EHAM)
Time Latitude Longitude Altitude Speed Heading
2026-04-27 17:46 57.58299 9.26146 38356 ft 464 kts 201°
2026-04-27 17:46 57.55268 9.24078 38369 ft 464 kts 201°
2026-04-27 17:47 57.49199 9.19949 38371 ft 463 kts 201°
2026-04-27 17:47 57.43173 9.15863 38362 ft 463 kts 201°
2026-04-27 17:48 57.37097 9.11758 38357 ft 463 kts 201°
2026-04-27 17:48 57.31040 9.07680 38350 ft 463 kts 201°
2026-04-27 17:49 57.25018 9.03639 38358 ft 462 kts 201°
2026-04-27 17:49 57.18961 8.99590 38356 ft 462 kts 201°
2026-04-27 17:50 57.12950 8.95585 38355 ft 462 kts 201°
2026-04-27 17:50 57.03852 8.89549 38342 ft 461 kts 201°
2026-04-27 17:51 56.97841 8.85579 38342 ft 461 kts 201°
2026-04-27 17:51 56.91789 8.81596 38343 ft 461 kts 201°
2026-04-27 17:52 56.85772 8.77649 38343 ft 462 kts 201°
2026-04-27 17:52 56.79709 8.73685 38329 ft 462 kts 201°
2026-04-27 17:53 56.73660 8.69745 38330 ft 461 kts 201°
2026-04-27 17:53 56.67632 8.65831 38334 ft 461 kts 201°
2026-04-27 17:54 56.61583 8.61917 38328 ft 461 kts 201°
2026-04-27 17:54 56.55524 8.58010 38330 ft 461 kts 201°
2026-04-27 17:55 56.49472 8.54120 38324 ft 460 kts 201°
2026-04-27 17:55 56.43466 8.50274 38320 ft 460 kts 201°
2026-04-27 17:56 56.37417 8.46412 38320 ft 460 kts 201°
2026-04-27 17:56 56.31377 8.42570 38320 ft 460 kts 201°
2026-04-27 17:57 56.25371 8.38762 38321 ft 459 kts 201°
2026-04-27 17:57 56.19356 8.34961 38318 ft 458 kts 201°
2026-04-27 17:58 56.13330 8.31166 38320 ft 458 kts 201°
2026-04-27 17:58 56.07348 8.27410 38320 ft 458 kts 201°
2026-04-27 17:59 56.01324 8.23640 38314 ft 458 kts 201°
2026-04-27 17:59 55.95342 8.19910 38318 ft 457 kts 201°
2026-04-27 18:00 55.89318 8.16166 38322 ft 457 kts 201°
2026-04-27 18:00 55.83340 8.12463 38327 ft 457 kts 201°
2026-04-27 18:01 55.77315 8.08742 38328 ft 457 kts 201°
2026-04-27 18:01 55.71296 8.05037 38325 ft 457 kts 201°
2026-04-27 18:02 55.65322 8.01372 38325 ft 457 kts 201°
2026-04-27 18:02 55.59296 7.97687 38319 ft 457 kts 201°
2026-04-27 18:03 55.53260 7.94008 38319 ft 457 kts 200°
2026-04-27 18:03 55.47287 7.90379 38318 ft 455 kts 201°
2026-04-27 18:04 55.41286 7.86745 38320 ft 455 kts 201°
2026-04-27 18:04 55.35317 7.83141 38319 ft 455 kts 201°
2026-04-27 18:05 55.29318 7.79529 38319 ft 455 kts 201°
2026-04-27 18:05 55.23320 7.75928 38328 ft 454 kts 201°
2026-04-27 18:06 55.17340 7.72350 38325 ft 453 kts 201°
2026-04-27 18:06 55.11391 7.68803 38313 ft 454 kts 201°
2026-04-27 18:07 55.05426 7.65255 38327 ft 455 kts 201°
2026-04-27 18:07 54.99421 7.61772 38318 ft 455 kts 199°
2026-04-27 18:08 54.93375 7.58525 38315 ft 454 kts 199°
2026-04-27 18:08 54.87337 7.55256 38317 ft 454 kts 199°
2026-04-27 18:09 54.81290 7.51990 38317 ft 454 kts 199°
2026-04-27 18:09 54.75294 7.48759 38311 ft 453 kts 199°
2026-04-27 18:10 54.69271 7.45526 38313 ft 451 kts 199°
2026-04-27 18:10 54.63301 7.42330 38317 ft 452 kts 199°
2026-04-27 18:11 54.57276 7.39116 38317 ft 452 kts 199°
2026-04-27 18:11 54.51353 7.35965 38298 ft 452 kts 199°
2026-04-27 18:12 54.46361 7.33316 38312 ft 452 kts 199°
2026-04-27 18:12 54.39363 7.29615 38309 ft 452 kts 199°
2026-04-27 18:13 54.34358 7.26976 38312 ft 452 kts 199°
2026-04-27 18:13 54.27355 7.23295 38300 ft 452 kts 200°
2026-04-27 18:14 54.22356 7.20676 38309 ft 451 kts 200°
2026-04-27 18:14 54.16337 7.17531 38310 ft 451 kts 200°
2026-04-27 18:15 54.10328 7.14400 38313 ft 451 kts 200°
2026-04-27 18:15 54.04346 7.11293 38312 ft 451 kts 200°
2026-04-27 18:16 53.98342 7.08183 38303 ft 448 kts 200°
2026-04-27 18:16 53.92371 7.05101 38299 ft 447 kts 200°
2026-04-27 18:17 53.86438 7.02047 38306 ft 448 kts 200°
2026-04-27 18:17 53.80472 6.98985 37930 ft 449 kts 200°
2026-04-27 18:18 53.77477 6.97450 37176 ft 449 kts 200°
2026-04-27 18:18 53.74476 6.95916 36426 ft 449 kts 200°
2026-04-27 18:18 53.71476 6.94384 35709 ft 449 kts 200°
2026-04-27 18:18 53.68486 6.92860 35063 ft 447 kts 201°
2026-04-27 18:19 53.65550 6.91366 34724 ft 436 kts 201°
2026-04-27 18:19 53.62658 6.89896 34213 ft 431 kts 201°
2026-04-27 18:19 53.59787 6.88440 33514 ft 430 kts 201°
2026-04-27 18:19 53.56952 6.87003 32768 ft 429 kts 201°
2026-04-27 18:20 53.54071 6.85545 31823 ft 432 kts 201°
2026-04-27 18:20 53.51178 6.84082 30917 ft 435 kts 200°
2026-04-27 18:20 53.48299 6.82630 29938 ft 439 kts 200°
2026-04-27 18:20 53.45353 6.81145 28871 ft 442 kts 200°
2026-04-27 18:21 53.42401 6.79660 27923 ft 443 kts 200°
2026-04-27 18:21 53.39440 6.78172 26916 ft 445 kts 200°
2026-04-27 18:21 53.36480 6.76686 26445 ft 445 kts 200°
2026-04-27 18:21 53.33494 6.75189 26241 ft 448 kts 200°
2026-04-27 18:22 53.30487 6.73684 26251 ft 454 kts 199°
2026-04-27 18:22 53.27441 6.72161 26256 ft 456 kts 199°
2026-04-27 18:22 53.24402 6.70644 26263 ft 455 kts 199°
2026-04-27 18:22 53.21412 6.69154 26265 ft 455 kts 199°
2026-04-27 18:23 53.18376 6.67643 26266 ft 454 kts 199°
2026-04-27 18:23 53.15449 6.65727 26248 ft 449 kts 212°
2026-04-27 18:23 53.12816 6.62951 26277 ft 449 kts 214°
2026-04-27 18:23 53.10161 6.60255 26269 ft 446 kts 214°
2026-04-27 18:24 53.07510 6.57555 26267 ft 446 kts 214°
2026-04-27 18:24 53.04862 6.54856 26253 ft 445 kts 214°
2026-04-27 18:24 53.02214 6.52160 26257 ft 445 kts 214°
2026-04-27 18:24 52.99572 6.49472 26260 ft 445 kts 214°
2026-04-27 18:25 52.96929 6.46788 26254 ft 445 kts 214°
2026-04-27 18:25 52.94355 6.44178 26265 ft 429 kts 214°
2026-04-27 18:25 52.91859 6.41649 26268 ft 414 kts 214°
2026-04-27 18:25 52.89413 6.39175 26259 ft 408 kts 214°
2026-04-27 18:26 52.87037 6.36775 26185 ft 391 kts 214°
2026-04-27 18:26 52.84764 6.34450 26052 ft 377 kts 217°
2026-04-27 18:26 52.82886 6.31501 25412 ft 372 kts 236°
2026-04-27 18:26 52.81435 6.28005 24759 ft 374 kts 236°
2026-04-27 18:27 52.79922 6.24465 24057 ft 378 kts 236°
2026-04-27 18:27 52.78404 6.20885 23247 ft 382 kts 236°
2026-04-27 18:27 52.76874 6.17265 22453 ft 384 kts 236°
2026-04-27 18:27 52.75365 6.13690 21609 ft 382 kts 236°
2026-04-27 18:28 52.73852 6.10111 20638 ft 379 kts 236°
2026-04-27 18:28 52.72349 6.06560 19678 ft 376 kts 236°
2026-04-27 18:28 52.70843 6.03005 18292 ft 383 kts 236°
2026-04-27 18:28 52.69323 5.99423 17362 ft 377 kts 236°
2026-04-27 18:29 52.67849 5.95956 16672 ft 367 kts 236°
2026-04-27 18:29 52.66393 5.92530 15920 ft 360 kts 236°
2026-04-27 18:29 52.64967 5.89184 15189 ft 353 kts 236°
2026-04-27 18:29 52.63565 5.85894 14469 ft 348 kts 237°
2026-04-27 18:30 52.62178 5.82648 13709 ft 343 kts 236°
2026-04-27 18:30 52.60826 5.79488 12935 ft 339 kts 236°
2026-04-27 18:30 52.59478 5.76338 12176 ft 335 kts 236°
2026-04-27 18:30 52.58143 5.73225 11430 ft 331 kts 235°
2026-04-27 18:31 52.56821 5.70147 10713 ft 326 kts 235°
2026-04-27 18:31 52.55521 5.67121 10155 ft 317 kts 234°
2026-04-27 18:31 52.54293 5.64267 10127 ft 297 kts 234°
2026-04-27 18:31 52.53126 5.61555 10052 ft 284 kts 234°
2026-04-27 18:32 52.52008 5.58960 9980 ft 272 kts 234°
2026-04-27 18:32 52.50965 5.56439 9922 ft 265 kts 239°
2026-04-27 18:32 52.50014 5.53800 9923 ft 271 kts 239°
2026-04-27 18:32 52.49035 5.51113 9924 ft 275 kts 239°
2026-04-27 18:33 52.48063 5.48459 9882 ft 272 kts 239°
2026-04-27 18:33 52.47084 5.45799 9511 ft 273 kts 239°
2026-04-27 18:33 52.46106 5.43149 9235 ft 270 kts 239°
2026-04-27 18:33 52.45128 5.40506 8787 ft 272 kts 239°
2026-04-27 18:34 52.44147 5.37857 8452 ft 271 kts 239°
2026-04-27 18:34 52.43162 5.35198 8031 ft 273 kts 239°
2026-04-27 18:34 52.42201 5.32608 7738 ft 271 kts 239°
2026-04-27 18:34 52.41227 5.29990 7383 ft 272 kts 240°
2026-04-27 18:35 52.40242 5.27343 7023 ft 273 kts 240°
2026-04-27 18:35 52.39249 5.24677 6720 ft 275 kts 239°
2026-04-27 18:35 52.38197 5.22039 6411 ft 277 kts 237°
2026-04-27 18:35 52.37133 5.19407 6128 ft 276 kts 238°
2026-04-27 18:36 52.36069 5.16802 5876 ft 273 kts 237°
2026-04-27 18:36 52.35024 5.14251 5694 ft 267 kts 237°
2026-04-27 18:36 52.34007 5.11791 5508 ft 261 kts 237°
2026-04-27 18:36 52.33008 5.09348 5332 ft 255 kts 237°
2026-04-27 18:37 52.32031 5.06960 5143 ft 250 kts 237°
2026-04-27 18:37 52.31082 5.04628 4997 ft 243 kts 238°
2026-04-27 18:37 52.30144 5.02350 4805 ft 241 kts 237°
2026-04-27 18:37 52.29215 5.00085 4598 ft 240 kts 237°
2026-04-27 18:38 52.28290 4.97854 4372 ft 241 kts 237°
2026-04-27 18:38 52.27354 4.95586 4142 ft 240 kts 238°
2026-04-27 18:38 52.26424 4.93325 3915 ft 238 kts 237°
2026-04-27 18:38 52.25509 4.91107 3749 ft 231 kts 237°
2026-04-27 18:39 52.24621 4.88955 3590 ft 224 kts 237°
2026-04-27 18:39 52.23775 4.86940 3444 ft 212 kts 237°
2026-04-27 18:39 52.22956 4.84974 3200 ft 206 kts 238°
2026-04-27 18:39 52.22156 4.83068 3021 ft 198 kts 237°
2026-04-27 18:40 52.21399 4.81236 2954 ft 196 kts 237°
2026-04-27 18:40 52.20632 4.79383 2957 ft 196 kts 237°
2026-04-27 18:40 52.19869 4.77536 2977 ft 197 kts 237°
2026-04-27 18:40 52.19099 4.75684 2990 ft 197 kts 237°
2026-04-27 18:41 52.18340 4.73836 3003 ft 195 kts 237°
2026-04-27 18:41 52.17591 4.72005 2989 ft 193 kts 238°
2026-04-27 18:41 52.16839 4.70180 2988 ft 195 kts 237°
2026-04-27 18:41 52.16077 4.68338 3005 ft 195 kts 237°
2026-04-27 18:42 52.15321 4.66506 2986 ft 195 kts 237°
2026-04-27 18:42 52.14812 4.65286 2933 ft 196 kts 237°
2026-04-27 18:42 52.13798 4.62854 2961 ft 196 kts 237°
2026-04-27 18:42 52.13037 4.61018 3000 ft 195 kts 237°
2026-04-27 18:43 52.12279 4.59180 2988 ft 196 kts 238°
2026-04-27 18:43 52.11848 4.57141 2934 ft 190 kts 273°
2026-04-27 18:43 52.12266 4.55192 2922 ft 183 kts 313°
2026-04-27 18:43 52.13265 4.53950 2997 ft 182 kts 332°
2026-04-27 18:44 52.14368 4.52904 3036 ft 182 kts 332°
2026-04-27 18:44 52.15473 4.51873 3029 ft 182 kts 332°
2026-04-27 18:44 52.16571 4.50852 3022 ft 181 kts 337°
2026-04-27 18:44 52.17760 4.50593 2919 ft 175 kts 15°
2026-04-27 18:45 52.18865 4.51446 2867 ft 177 kts 31°
2026-04-27 18:45 52.19919 4.52520 2799 ft 179 kts 32°
2026-04-27 18:45 52.20953 4.53595 2673 ft 177 kts 32°
2026-04-27 18:45 52.21820 4.54960 2467 ft 173 kts 60°
2026-04-27 18:46 52.22374 4.56696 2305 ft 174 kts 60°
2026-04-27 18:46 52.23001 4.58401 2137 ft 175 kts 58°
2026-04-27 18:46 52.23646 4.60067 1925 ft 173 kts 59°
2026-04-27 18:46 52.24286 4.61726 1721 ft 170 kts 58°
2026-04-27 18:47 52.24878 4.63261 1493 ft 152 kts 58°
2026-04-27 18:47 52.25436 4.64711 1315 ft 149 kts 58°
2026-04-27 18:47 52.25960 4.66071 1117 ft 139 kts 58°
2026-04-27 18:47 52.26465 4.67381 943 ft 135 kts 57°
2026-04-27 18:48 52.26964 4.68675 744 ft 135 kts 57°
2026-04-27 18:48 52.27465 4.69976 567 ft 136 kts 57°
2026-04-27 18:48 52.27970 4.71289 381 ft 137 kts 57°
2026-04-27 18:48 52.28476 4.72601 204 ft 135 kts 57°
2026-04-27 18:49 52.28973 4.73892 28 ft 133 kts 57°
2026-04-27 18:49 52.29423 4.75057 0 ft 99 kts 57°
2026-04-27 18:49 52.29707 4.75795 0 ft 56 kts 58°
2026-04-27 18:49 52.29847 4.76160 -1 ft 31 kts 58°
2026-04-27 18:50 52.29968 4.76456 0 ft 31 kts 47°
2026-04-27 18:50 52.30114 4.76613 1 ft 20 kts 27°
2026-04-27 18:50 52.30182 4.76671 1 ft 0 kts 28°
2026-04-27 18:51 52.30216 4.76700 1 ft 11 kts 27°
2026-04-27 18:52 52.30319 4.76732 1 ft 18 kts 343°
2026-04-27 18:52 52.30407 4.76816 1 ft 15 kts 58°
2026-04-27 18:52 52.30475 4.76965 1 ft 16 kts 26°
2026-04-27 18:53 52.30651 4.76756 1 ft 19 kts 328°
2026-04-27 18:53 52.30712 4.76694 1 ft 0 kts 328°
2026-04-27 18:54 52.30713 4.76693 1 ft 1 kts 328°
2026-04-27 18:54 52.30718 4.76688 1 ft 3 kts 328°
2026-04-27 18:54 52.30754 4.76642 1 ft 8 kts 322°
2026-04-27 18:54 52.30791 4.76633 1 ft 4 kts
2026-04-27 18:55 52.30800 4.76631 1 ft 0 kts 349°
2026-04-27 18:55 52.30802 4.76631 1 ft 0 kts 350°